EW4713 Weather Reports


time (UTC)temp
C
wind
direction
speed
KPH
gust
KPH
rain 1hr
cm
rain 24hr
cm
rain mn
cm
humidity
%
barometer
mb
20260831012401 20 297 1.6 8.0 0.00 0.00 0.00 91 1005.1
20260831011900 20 285 3.2 8.0 0.00 0.00 0.00 91 1005.1
20260831011401 20 346 8.0 8.0 0.00 0.00 0.00 91 1004.7
20260831010901 20 242 6.4 8.0 0.00 0.00 0.00 90 1005.1
20260831010401 20 264 1.6 8.0 0.00 0.00 0.00 90 1005.1
20260831005901 20 310 4.8 16.1 0.00 0.00 0.00 90 1005.1
20260831005402 20 258 3.2 16.1 0.00 0.00 0.00 90 1004.7
20260831004901 20 279 3.2 9.7 0.00 0.00 0.00 90 1004.7
20260831004402 20 251 3.2 11.3 0.00 0.00 0.00 90 1004.7
20260831003901 20 300 3.2 11.3 0.00 0.00 0.00 90 1004.4
20260831003401 20 270 3.2 8.0 0.00 0.00 0.00 90 1004.4
20260831002900 20 261 4.8 8.0 0.00 0.00 0.00 90 1004.4
20260831002401 20 294 6.4 16.1 0.00 0.00 0.00 89 1004.4
20260831001900 20 289 1.6 16.1 0.00 0.00 0.00 89 1004.7
20260831000901 20 289 3.2 19.3 0.00 0.00 0.00 89 1004.7
20260831000403 20 283 6.4 14.5 0.00 0.00 0.00 89 1004.7
20260830235901 20 327 3.2 14.5 0.00 0.00 0.00 88 1004.7
20260830235402 20 264 1.6 16.1 0.00 0.00 0.00 89 1004.7
20260830234901 20 275 3.2 16.1 0.00 0.00 0.00 88 1004.4
20260830234403 20 237 3.2 9.7 0.00 0.00 0.00 88 1004.7
20260830233402 20 299 3.2 16.1 0.00 0.00 0.00 88 1005.1
20260830232901 20 275 3.2 16.1 0.00 0.00 0.00 87 1005.1
20260830232401 21 288 6.4 11.3 0.00 0.00 0.00 87 1005.1
20260830231901 20 288 6.4 11.3 0.00 0.00 0.00 87 1005.4
20260830231403 21 291 6.4 14.5 0.00 0.00 0.00 87 1005.4
20260830230901 21 246 6.4 14.5 0.00 0.00 0.00 86 1005.1
20260830225900 21 180 0.0 8.0 0.00 0.00 0.00 87 1005.4
20260830225401 21 235 4.8 8.0 0.00 0.00 0.00 87 1005.4
20260830224903 21 274 3.2 12.9 0.00 0.00 0.00 87 1005.4
20260830224401 21 270 4.8 17.7 0.00 0.00 0.00 86 1005.4
20260830223901 21 334 4.8 17.7 0.00 0.00 0.00 87 1005.1
20260830223400 21 282 3.2 12.9 0.00 0.00 0.00 87 1005.1
20260830222901 20 292 3.2 8.0 0.00 0.00 0.00 88 1005.1
20260830221903 20 291 1.6 9.7 0.00 0.00 0.00 89 1005.7
20260830220904 20 297 6.4 8.0 0.00 0.00 0.00 89 1005.7
20260830220402 20 286 3.2 19.3 0.00 0.00 0.00 89 1005.7
20260830215902 20 270 1.6 19.3 0.00 0.00 0.00 89 1006.5
20260830215404 20 293 9.7 12.9 0.00 0.00 0.00 89 1006.1
20260830214902 20 248 3.2 9.7 0.00 0.00 0.00 90 1006.1
20260830214404 20 266 3.2 9.7 0.00 0.00 0.00 90 1006.1
20260830213903 20 262 3.2 6.4 0.00 0.00 0.00 90 1006.5
20260830213402 20 322 3.2 8.0 0.00 0.00 0.00 90 1006.5
20260830212902 20 270 1.6 16.1 0.00 0.00 0.00 91 1006.9
20260830211903 20 323 3.2 11.3 0.00 0.00 0.00 91 1006.9
20260830211403 20 264 1.6 11.3 0.00 0.00 0.00 91 1006.9
20260830210403 20 264 1.6 11.3 0.00 0.00 0.00 92 1007.2
20260830205905 20 326 4.8 6.4 0.00 0.00 0.00 92 1006.9
20260830205404 20 305 4.8 9.7 0.00 0.00 0.00 92 1006.9
20260830204902 19 293 8.0 9.7 0.00 0.00 0.00 92 1006.9
20260830204401 19 255 1.6 9.7 0.00 0.00 0.00 92 1007.2
20260830203401 20 237 0.0 8.0 0.00 0.00 0.00 93 1007.2
20260830202901 19 270 3.2 9.7 0.00 0.00 0.00 93 1007.2
20260830202401 19 260 3.2 12.9 0.00 0.00 0.00 93 1006.9
20260830201900 19 349 3.2 12.9 0.00 0.00 0.00 93 1007.2
20260830200402 19 286 6.4 11.3 0.00 0.00 0.00 93 1007.5
20260830195859 20 239 3.2 16.1 0.00 0.00 0.00 93 1007.2
20260830195358 20 279 6.4 16.1 0.00 0.00 0.00 92 1007.2
20260830194859 19 184 3.2 9.7 0.00 0.00 0.00 93 1007.5
20260830194358 19 234 4.8 11.3 0.00 0.00 0.00 93 1007.5
20260830193857 19 249 6.4 11.3 0.00 0.00 0.00 92 1007.5
20260830193357 20 293 4.8 9.7 0.00 0.00 0.00 92 1007.5
20260830192858 20 357 0.0 16.1 0.00 0.00 0.00 93 1007.2
20260830192357 20 251 0.0 16.1 0.00 0.00 0.00 93 1006.9
20260830191856 19 288 4.8 12.9 0.00 0.00 0.00 92 1007.5
20260830190857 19 331 3.2 11.3 0.00 0.00 0.00 93 1007.2
20260830190355 19 318 4.8 16.1 0.00 0.00 0.00 93 1007.5
20260830184854 19 286 3.2 9.7 0.00 0.00 0.00 94 1007.2
20260830184355 19 282 4.8 12.9 0.00 0.00 0.00 94 1007.2
20260830183854 19 290 4.8 12.9 0.00 0.00 0.00 94 1007.2
20260830183354 19 250 3.2 11.3 0.00 0.00 0.00 94 1007.2
20260830182855 19 244 4.8 16.1 0.00 0.00 0.00 94 1007.2
20260830182353 19 228 6.4 16.1 0.00 0.00 0.00 94 1007.2
20260830181853 19 277 3.2 11.3 0.00 0.00 0.00 94 1006.9
20260830180852 19 292 3.2 9.7 0.00 0.00 0.00 94 1007.2
20260830180352 19 236 0.0 8.0 0.00 0.00 0.00 95 1006.9
20260830174851 19 294 6.4 8.0 0.00 0.00 0.00 94 1007.2
20260830174352 19 292 0.0 14.5 0.00 0.00 0.00 94 1007.2
20260830173850 19 13 4.8 14.5 0.00 0.00 0.00 94 1006.9
20260830173351 19 278 6.4 11.3 0.00 0.00 0.00 95 1007.2
20260830172852 19 259 3.2 11.3 0.00 0.00 0.00 95 1007.2
20260830172349 19 225 9.7 12.9 0.00 0.00 0.00 96 1007.2
20260830171849 18 291 4.8 8.0 0.00 0.00 0.00 96 1007.2
20260830171350 18 222 4.8 11.3 0.00 0.00 0.00 96 1007.2
20260830170348 18 311 6.4 9.7 0.00 0.00 0.00 97 1007.2
20260830165850 18 263 4.8 9.7 0.00 0.00 0.00 97 1007.2
20260830165348 18 0 1.6 9.7 0.00 0.00 0.00 97 1007.2
20260830164847 18 348 0.0 8.0 0.00 0.00 0.00 97 1007.5
20260830164348 18 280 0.0 8.0 0.00 0.00 0.00 97 1007.2
20260830163847 18 303 3.2 6.4 0.00 0.00 0.00 97 1007.2
20260830163347 18 294 3.2 9.7 0.00 0.00 0.00 97 1006.9
20260830162848 18 256 4.8 9.7 0.00 0.00 0.00 97 1007.2
20260830161846 18 324 3.2 11.3 0.00 0.00 0.00 97 1007.2
20260830161347 18 248 0.0 11.3 0.00 0.00 0.00 97 1007.5
20260830160345 18 337 4.8 8.0 0.00 0.00 0.00 97 1007.5
20260830155845 18 253 3.2 9.7 0.00 0.00 0.00 96 1007.5
20260830155344 18 334 4.8 9.7 0.00 0.00 0.00 96 1007.5
20260830154844 18 194 3.2 9.7 0.00 0.00 0.00 96 1007.5
20260830154345 18 291 1.6 14.5 0.00 0.00 0.00 96 1007.5
20260830153843 18 270 6.4 14.5 0.00 0.00 0.00 96 1007.5
20260830153343 18 270 1.6 11.3 0.00 0.00 0.00 96 1007.5
20260830152342 18 243 0.0 11.3 0.00 0.00 0.00 97 1007.5
20260830151842 18 263 0.0 11.3 0.00 0.00 0.00 97 1007.9
20260830151342 18 7 1.6 12.9 0.00 0.00 0.00 97 1007.5
20260830150842 18 285 4.8 12.9 0.00 0.00 0.00 98 1007.5
20260830145843 18 0 0.0 8.0 0.00 0.00 0.00 98 1007.9
20260830145340 18 328 3.2 4.8 0.00 0.00 0.00 98 1007.9
20260830144840 18 276 1.6 4.8 0.00 0.00 0.00 98 1007.9
20260830144341 18 291 0.0 9.7 0.00 0.00 0.00 98 1007.5
20260830143840 18 212 0.0 9.7 0.00 0.00 0.00 98 1007.9
20260830143339 18 258 3.2 8.0 0.00 0.00 0.00 98 1007.9
20260830142840 18 342 0.0 9.7 0.00 0.00 0.00 98 1007.5
20260830141838 17 270 0.0 6.4 0.00 0.00 0.00 98 1007.5
20260830140829 17 225 0.0 8.0 0.00 0.00 0.00 98 1007.5
20260830135831 17 308 14.5 17.7 0.00 0.00 0.00 99 1007.5
20260830135329 17 283 1.6 11.3 0.00 0.00 0.00 99 1007.2
20260830134828 17 355 3.2 11.3 0.00 0.00 0.00 99 1007.5
20260830134331 17 283 4.8 9.7 0.00 0.00 0.00 99 1007.5
20260830133829 17 340 1.6 9.7 0.00 0.00 0.00 99 1007.5
20260830132831 17 286 3.2 6.4 0.00 0.00 0.00 99 1007.2
20260830132329 17 294 3.2 6.4 0.00 0.00 0.00 99 1007.5
20260830131828 17 276 0.0 6.4 0.00 0.00 0.00 99 1007.2
20260830131331 17 303 3.2 6.4 0.00 0.00 0.00 99 1007.5
20260830130830 17 294 1.6 6.4 0.00 0.00 0.00 99 1007.5
20260830130329 17 270 1.6 6.4 0.00 0.00 0.00 99 1007.5
20260830125328 17 297 0.0 11.3 0.00 0.00 0.00 99 1007.5
20260830124829 17 355 1.6 8.0 0.00 0.00 0.00 99 1007.9
20260830124334 17 0 0.0 8.0 0.00 0.00 0.00 99 1007.5
20260830123832 17 254 3.2 6.4 0.00 0.00 0.00 99 1007.5
20260830122832 17 270 0.0 4.8 0.00 0.00 0.00 99 1007.2
20260830121801 17 294 0.0 6.4 0.00 0.00 0.00 98 1007.5
20260830121302 18 337 0.0 9.7 0.00 0.00 0.00 98 1007.5
20260830120801 18 261 0.0 9.7 0.00 0.00 0.00 98 1007.5
20260830120314 18 260 9.7 9.7 0.00 0.00 0.00 98 1007.5
20260830115802 18 291 0.0 3.2 0.00 0.00 0.00 97 1007.5
20260830115301 18 279 0.0 4.8 0.00 0.00 0.00 97 1007.5
20260830114801 18 353 0.0 6.4 0.00 0.00 0.00 97 1007.9
20260830114303 18 337 3.2 6.4 0.00 0.00 0.00 97 1007.5
20260830113801 18 0 3.2 6.4 0.00 0.00 0.00 97 1007.5
20260830113301 18 279 0.0 4.8 0.00 0.00 0.00 97 1007.5
20260830112802 18 0 0.0 4.8 0.00 0.00 0.00 97 1007.5
20260830111801 18 10 3.2 6.4 0.00 0.00 0.00 97 1007.5
20260830110801 18 285 0.0 4.8 0.00 0.00 0.00 97 1007.5
20260830110301 18 270 0.0 6.4 0.00 0.00 0.00 97 1007.5
20260830105811 18 270 0.0 9.7 0.00 0.00 0.00 97 1007.2
20260830104802 18 297 0.0 14.5 0.00 0.00 0.00 97 1007.2
20260830104303 18 299 4.8 14.5 0.00 0.00 0.00 97 1007.2
20260830103801 18 345 0.0 6.4 0.00 0.00 0.00 97 1006.9
20260830102802 18 0 1.6 6.4 0.00 0.00 0.00 97 1006.9
20260830102302 18 336 3.2 6.4 0.00 0.00 0.00 97 1007.2
20260830101801 18 270 0.0 6.4 0.00 0.00 0.00 97 1007.2
20260830101302 18 240 0.0 6.4 0.00 0.00 0.00 98 1007.2
20260830100800 18 236 0.0 8.0 0.00 0.00 0.00 98 1007.2
20260830100306 18 287 3.2 8.0 0.00 0.00 0.00 98 1007.5
20260830095802 18 340 1.6 3.2 0.00 0.00 0.00 98 1007.2
20260830095305 18 270 3.2 3.2 0.00 0.00 0.00 98 1007.5
20260830094801 18 283 0.0 3.2 0.00 0.00 0.00 98 1007.5
20260830093801 18 283 0.0 4.8 0.00 0.00 0.00 98 1007.5
20260830093301 18 294 0.0 4.8 0.00 0.00 0.00 98 1007.9
20260830092802 18 263 0.0 8.0 0.00 0.00 0.00 98 1007.5
20260830092301 18 286 1.6 8.0 0.00 0.00 0.00 98 1007.2
20260830091801 18 255 3.2 4.8 0.00 0.00 0.00 98 1007.2
20260830091302 18 278 0.0 4.8 0.00 0.00 0.00 98 1007.2
20260830090301 18 0 0.0 6.4 0.00 0.00 0.00 98 1007.2
20260830085802 18 7 0.0 6.4 0.00 0.00 0.00 97 1007.2
20260830085301 18 276 0.0 4.8 0.00 0.00 0.00 98 1007.2
20260830084801 18 290 0.0 4.8 0.00 0.00 0.00 98 1007.2
20260830084303 18 285 0.0 3.2 0.00 0.00 0.00 98 1006.9
20260830083801 18 291 0.0 4.8 0.00 0.00 0.00 98 1006.9
20260830083300 18 240 0.0 4.8 0.00 0.00 0.00 98 1007.2
20260830082803 18 0 0.0 3.2 0.00 0.00 0.00 98 1007.2
20260830082301 18 270 0.0 3.2 0.00 0.00 0.00 98 1007.2
20260830081801 18 286 0.0 1.6 0.00 0.00 0.00 98 1007.2
20260830080801 18 291 0.0 3.2 0.00 0.00 0.00 98 1006.9
20260830080300 18 306 0.0 3.2 0.00 0.00 0.00 98 1007.2
20260830075803 18 306 0.0 4.8 0.00 0.00 0.00 98 1007.2
20260830075301 18 337 0.0 4.8 0.00 0.00 0.00 98 1006.9
20260830074801 18 346 3.2 6.4 0.00 0.00 0.00 98 1006.9
20260830073800 18 320 3.2 6.4 0.00 0.00 0.00 98 1007.2
20260830072802 18 270 0.0 6.4 0.00 0.00 0.00 98 1007.5
20260830072302 18 276 0.0 6.4 0.00 0.00 0.00 98 1007.2
20260830071801 18 306 4.8 8.0 0.00 0.00 0.00 98 1007.5
20260830071302 18 253 6.4 8.0 0.00 0.00 0.00 98 1007.5
20260830070801 18 240 3.2 8.0 0.00 0.00 0.00 99 1007.2
20260830070300 18 355 0.0 8.0 0.00 0.00 0.00 99 1007.2
20260830065802 18 270 0.0 4.8 0.00 0.00 0.00 99 1007.2
20260830065301 18 334 0.0 6.4 0.00 0.00 0.00 99 1007.5
20260830064801 18 352 0.0 11.3 0.00 0.00 0.00 99 1007.5
20260830063800 17 305 3.2 14.5 0.00 0.00 0.00 99 1007.2
20260830063304 17 296 6.4 14.5 0.00 0.00 0.00 99 1007.2
20260830062805 17 23 0.0 3.2 0.00 0.00 0.00 99 1007.2
20260830062305 17 0 0.0 1.6 0.00 0.00 0.00 99 1007.5
20260830061804 17 285 0.0 3.2 0.00 0.00 0.00 99 1007.5
20260830061305 17 270 0.0 3.2 0.00 0.00 0.00 99 1007.2
20260830060803 17 300 0.0 1.6 0.00 0.00 0.00 99 1007.5
20260830060304 17 286 0.0 1.6 0.00 0.00 0.00 98 1007.5
20260830055806 17 215 0.0 0.0 0.00 0.00 0.00 98 1007.5
20260830054804 17 215 0.0 0.0 0.00 0.00 0.00 98 1007.9
20260830054304 17 215 0.0 0.0 0.00 0.00 0.00 97 1007.9
20260830053803 18 215 0.0 0.0 0.00 0.00 0.00 97 1007.9
20260830053304 18 215 0.0 1.6 0.00 0.00 0.00 97 1007.9
20260830052805 18 215 0.0 1.6 0.00 0.00 0.00 97 1007.9
20260830052306 18 270 0.0 3.2 0.00 0.00 0.00 97 1007.9
20260830051804 18 270 0.0 3.2 0.00 0.00 0.00 97 1007.9
20260830050804 18 294 0.0 3.2 0.00 0.00 0.00 96 1008.2
20260830050304 18 270 0.0 6.4 0.00 0.00 0.00 96 1008.2
20260830045804 19 291 0.0 6.4 0.00 0.00 0.00 96 1008.2
20260830045306 19 270 0.0 6.4 0.00 0.00 0.00 96 1008.2
20260830044304 19 281 3.2 4.8 0.00 0.00 0.00 96 1007.9
20260830043805 19 282 0.0 4.8 0.00 0.00 0.00 96 1007.9
20260830043303 19 285 0.0 4.8 0.00 0.00 0.00 96 1007.9
20260830042803 19 262 0.0 1.6 0.00 0.00 0.00 95 1007.9
20260830042306 19 261 0.0 1.6 0.00 0.00 0.00 95 1008.5
20260830041802 19 270 0.0 6.4 0.00 0.00 0.00 95 1008.2
20260830041302 20 270 0.0 6.4 0.00 0.00 0.00 94 1008.2
20260830040301 20 270 0.0 6.4 0.00 0.00 0.00 94 1007.9
20260830035801 20 246 1.6 6.4 0.00 0.00 0.00 94 1008.2
20260830035306 20 279 0.0 6.4 0.00 0.00 0.00 93 1008.5
20260830034801 20 294 0.0 4.8 0.00 0.00 0.00 93 1008.2
20260830034301 20 282 3.2 4.8 0.00 0.00 0.00 93 1008.2
20260830033801 20 265 3.2 4.8 0.00 0.00 0.00 93 1008.2
20260830032800 20 248 3.2 4.8 0.00 0.00 0.00 93 1007.9
20260830032300 20 328 0.0 4.8 0.00 0.00 0.00 92 1008.2
20260830031759 20 303 3.2 4.8 0.00 0.00 0.00 92 1007.9
20260830031258 20 294 0.0 4.8 0.00 0.00 0.00 92 1008.2
20260830030800 20 243 1.6 8.0 0.00 0.00 0.00 91 1007.9
20260830030258 20 265 4.8 8.0 0.00 0.00 0.00 91 1007.9
20260830025758 20 270 3.2 11.3 0.00 0.00 0.00 91 1007.9
20260830025258 20 286 1.6 11.3 0.00 0.00 0.00 91 1008.2
20260830024757 20 311 3.2 6.4 0.00 0.00 0.00 92 1008.2
20260830024257 20 274 3.2 4.8 0.00 0.00 0.00 92 1007.9
20260830023758 20 285 1.6 3.2 0.00 0.00 0.00 93 1007.9
20260830023256 20 270 0.0 3.2 0.00 0.00 0.00 93 1007.9
20260830022756 20 270 1.6 3.2 0.00 0.00 0.00 93 1007.9
20260830022259 20 278 0.0 1.6 0.00 0.00 0.00 93 1007.9
20260830021755 20 262 0.0 0.0 0.00 0.00 0.00 93 1007.2
20260830021254 20 262 0.0 1.6 0.00 0.00 0.00 93 1007.2
20260830020254 20 261 0.0 4.8 0.00 0.00 0.00 92 1006.9
20260830015754 20 290 3.2 4.8 0.00 0.00 0.00 92 1006.9
20260830014753 20 270 1.6 4.8 0.00 0.00 0.00 92 1006.9
20260830013254 20 279 0.0 4.8 0.00 0.00 0.00 91 1006.9
20260830012753 20 278 1.6 4.8 0.00 0.00 0.00 90 1006.5